#datetime,building,power
2023-10-05T00:00:00,pkn,10.80
2023-10-05T00:01:00,pkn,6.00
2023-10-05T00:03:00,pkn,9.60
2023-10-05T00:04:00,pkn,6.00
2023-10-05T00:06:00,pkn,7.20
2023-10-05T00:07:00,pkn,1.20
2023-10-05T00:09:00,pkn,2.40
2023-10-05T00:11:00,pkn,3.60
2023-10-05T00:12:00,pkn,2.40
2023-10-05T00:14:00,pkn,2.40
2023-10-05T00:16:00,pkn,2.40
2023-10-05T00:17:00,pkn,1.20
2023-10-05T00:19:00,pkn,2.40
2023-10-05T00:21:00,pkn,2.40
2023-10-05T00:22:00,pkn,1.20
2023-10-05T00:24:00,pkn,2.40
2023-10-05T00:26:00,pkn,2.40
2023-10-05T00:27:00,pkn,1.20
2023-10-05T00:29:00,pkn,2.40
2023-10-05T00:31:00,pkn,3.60
2023-10-05T00:33:00,pkn,2.40
2023-10-05T00:34:00,pkn,1.20
2023-10-05T00:36:00,pkn,3.60
2023-10-05T00:38:00,pkn,3.60
2023-10-05T00:40:00,pkn,1.20
2023-10-05T00:42:00,pkn,2.40
2023-10-05T00:44:00,pkn,2.40
2023-10-05T00:45:00,pkn,1.20
2023-10-05T00:46:00,pkn,1.20
2023-10-05T00:47:00,pkn,1.20
2023-10-05T00:48:00,pkn,6.00
2023-10-05T00:50:00,pkn,10.80
2023-10-05T00:52:00,pkn,10.80
2023-10-05T00:53:00,pkn,1.20
2023-10-05T00:54:00,pkn,8.40
2023-10-05T00:55:00,pkn,2.40
2023-10-05T00:56:00,pkn,9.60
2023-10-05T00:58:00,pkn,9.60
2023-10-05T01:00:00,pkn,10.80
2023-10-05T01:02:00,pkn,10.80
2023-10-05T01:04:00,pkn,10.80
2023-10-05T01:06:00,pkn,6.00
2023-10-05T01:07:00,pkn,1.20
2023-10-05T01:09:00,pkn,2.40
2023-10-05T01:10:00,pkn,1.20
2023-10-05T01:12:00,pkn,2.40
2023-10-05T01:14:00,pkn,2.40
2023-10-05T01:16:00,pkn,2.40
2023-10-05T01:18:00,pkn,2.40
2023-10-05T01:19:00,pkn,1.20
2023-10-05T01:20:00,pkn,1.20
2023-10-05T01:22:00,pkn,2.40
2023-10-05T01:24:00,pkn,2.40
2023-10-05T01:26:00,pkn,2.40
2023-10-05T01:27:00,pkn,1.20
2023-10-05T01:28:00,pkn,1.20
2023-10-05T01:30:00,pkn,2.40
2023-10-05T01:31:00,pkn,1.20
2023-10-05T01:33:00,pkn,1.20
2023-10-05T01:34:00,pkn,1.20
2023-10-05T01:36:00,pkn,2.40
2023-10-05T01:38:00,pkn,1.20
2023-10-05T01:39:00,pkn,1.20
2023-10-05T01:40:00,pkn,1.20
2023-10-05T01:42:00,pkn,2.40
2023-10-05T01:45:00,pkn,2.40
2023-10-05T01:46:00,pkn,1.20
2023-10-05T01:48:00,pkn,2.40
2023-10-05T01:50:00,pkn,2.40
2023-10-05T01:52:00,pkn,2.40
2023-10-05T01:54:00,pkn,1.20
2023-10-05T01:55:00,pkn,1.20
2023-10-05T01:57:00,pkn,2.40
2023-10-05T01:59:00,pkn,1.20
2023-10-05T02:01:00,pkn,2.40
2023-10-05T02:03:00,pkn,7.20
2023-10-05T02:05:00,pkn,9.60
2023-10-05T02:06:00,pkn,4.80
2023-10-05T02:07:00,pkn,2.40
2023-10-05T02:08:00,pkn,9.60
2023-10-05T02:09:00,pkn,4.80
2023-10-05T02:11:00,pkn,4.80
2023-10-05T02:12:00,pkn,1.20
2023-10-05T02:14:00,pkn,2.40
2023-10-05T02:17:00,pkn,2.40
2023-10-05T02:19:00,pkn,2.40
2023-10-05T02:20:00,pkn,1.20
2023-10-05T02:23:00,pkn,2.40
2023-10-05T02:24:00,pkn,1.20
2023-10-05T02:26:00,pkn,1.20
2023-10-05T02:28:00,pkn,2.40
2023-10-05T02:30:00,pkn,2.40
2023-10-05T02:32:00,pkn,2.40
2023-10-05T02:33:00,pkn,1.20
2023-10-05T02:34:00,pkn,1.20
2023-10-05T02:36:00,pkn,2.40
2023-10-05T02:37:00,pkn,1.20
2023-10-05T02:39:00,pkn,2.40
2023-10-05T02:41:00,pkn,2.40
2023-10-05T02:43:00,pkn,2.40
2023-10-05T02:44:00,pkn,1.20
2023-10-05T02:45:00,pkn,1.20
2023-10-05T02:47:00,pkn,1.20
2023-10-05T02:48:00,pkn,1.20
2023-10-05T02:50:00,pkn,2.40
2023-10-05T02:51:00,pkn,1.20
2023-10-05T02:52:00,pkn,1.20
2023-10-05T02:55:00,pkn,2.40
2023-10-05T02:57:00,pkn,2.40
2023-10-05T02:58:00,pkn,1.20
2023-10-05T03:01:00,pkn,2.40
2023-10-05T03:02:00,pkn,1.20
2023-10-05T03:04:00,pkn,1.20
2023-10-05T03:06:00,pkn,2.40
2023-10-05T03:08:00,pkn,1.20
2023-10-05T03:09:00,pkn,1.20
2023-10-05T03:11:00,pkn,2.40
2023-10-05T03:12:00,pkn,1.20
2023-10-05T03:14:00,pkn,2.40
2023-10-05T03:16:00,pkn,1.20
2023-10-05T03:17:00,pkn,1.20
2023-10-05T03:19:00,pkn,2.40
2023-10-05T03:21:00,pkn,2.40
2023-10-05T03:22:00,pkn,1.20
2023-10-05T03:24:00,pkn,1.20
2023-10-05T03:25:00,pkn,1.20
2023-10-05T03:27:00,pkn,2.40
2023-10-05T03:28:00,pkn,3.60
2023-10-05T03:30:00,pkn,8.40
2023-10-05T03:31:00,pkn,6.00
2023-10-05T03:32:00,pkn,4.80
2023-10-05T03:33:00,pkn,6.00
2023-10-05T03:34:00,pkn,3.60
2023-10-05T03:36:00,pkn,10.80
2023-10-05T03:37:00,pkn,4.80
2023-10-05T03:39:00,pkn,1.20
2023-10-05T03:41:00,pkn,2.40
2023-10-05T03:42:00,pkn,1.20
2023-10-05T03:44:00,pkn,1.20
2023-10-05T03:46:00,pkn,2.40
2023-10-05T03:48:00,pkn,2.40
2023-10-05T03:50:00,pkn,1.20
2023-10-05T03:51:00,pkn,1.20
2023-10-05T03:52:00,pkn,1.20
2023-10-05T03:54:00,pkn,2.40
2023-10-05T03:55:00,pkn,1.20
2023-10-05T03:57:00,pkn,2.40
2023-10-05T03:59:00,pkn,2.40
2023-10-05T04:01:00,pkn,2.40
2023-10-05T04:02:00,pkn,1.20
2023-10-05T04:04:00,pkn,2.40
2023-10-05T04:05:00,pkn,1.20
2023-10-05T04:06:00,pkn,1.20
2023-10-05T04:08:00,pkn,1.20
2023-10-05T04:09:00,pkn,1.20
2023-10-05T04:11:00,pkn,2.40
2023-10-05T04:13:00,pkn,2.40
2023-10-05T04:15:00,pkn,1.20
2023-10-05T04:16:00,pkn,1.20
2023-10-05T04:18:00,pkn,2.40
2023-10-05T04:20:00,pkn,2.40
2023-10-05T04:23:00,pkn,2.40
2023-10-05T04:25:00,pkn,1.20
2023-10-05T04:26:00,pkn,1.20
2023-10-05T04:28:00,pkn,2.40
2023-10-05T04:29:00,pkn,1.20
2023-10-05T04:31:00,pkn,1.20
2023-10-05T04:33:00,pkn,2.40
2023-10-05T04:35:00,pkn,2.40
2023-10-05T04:36:00,pkn,1.20
2023-10-05T04:37:00,pkn,1.20
2023-10-05T04:40:00,pkn,2.40
2023-10-05T04:42:00,pkn,2.40
2023-10-05T04:44:00,pkn,2.40
2023-10-05T04:47:00,pkn,2.40
2023-10-05T04:48:00,pkn,1.20
2023-10-05T04:50:00,pkn,2.40
2023-10-05T04:51:00,pkn,1.20
2023-10-05T04:54:00,pkn,2.40
2023-10-05T04:55:00,pkn,1.20
2023-10-05T04:57:00,pkn,1.20
2023-10-05T04:59:00,pkn,2.40
2023-10-05T05:01:00,pkn,1.20
2023-10-05T05:03:00,pkn,2.40
2023-10-05T05:05:00,pkn,1.20
2023-10-05T05:07:00,pkn,2.40
2023-10-05T05:09:00,pkn,2.40
2023-10-05T05:11:00,pkn,1.20
2023-10-05T05:12:00,pkn,1.20
2023-10-05T05:13:00,pkn,1.20
2023-10-05T05:15:00,pkn,2.40
2023-10-05T05:16:00,pkn,1.20
2023-10-05T05:18:00,pkn,1.20
2023-10-05T05:19:00,pkn,1.20
2023-10-05T05:21:00,pkn,2.40
2023-10-05T05:23:00,pkn,7.20
2023-10-05T05:25:00,pkn,9.60
2023-10-05T05:26:00,pkn,6.00
2023-10-05T05:28:00,pkn,10.80
2023-10-05T05:30:00,pkn,4.80
2023-10-05T05:32:00,pkn,2.40
2023-10-05T05:34:00,pkn,2.40
2023-10-05T05:36:00,pkn,1.20
2023-10-05T05:38:00,pkn,2.40
2023-10-05T05:40:00,pkn,2.40
2023-10-05T05:41:00,pkn,1.20
2023-10-05T05:43:00,pkn,1.20
2023-10-05T05:44:00,pkn,1.20
2023-10-05T05:45:00,pkn,1.20
2023-10-05T05:47:00,pkn,1.20
2023-10-05T05:49:00,pkn,2.40
2023-10-05T05:51:00,pkn,2.40
2023-10-05T05:53:00,pkn,1.20
2023-10-05T05:55:00,pkn,1.20
2023-10-05T05:56:00,pkn,1.20
2023-10-05T05:58:00,pkn,2.40
2023-10-05T06:00:00,pkn,2.40
2023-10-05T06:02:00,pkn,2.40
2023-10-05T06:03:00,pkn,1.20
2023-10-05T06:04:00,pkn,1.20
2023-10-05T06:06:00,pkn,1.20
2023-10-05T06:07:00,pkn,1.20
2023-10-05T06:09:00,pkn,2.40
2023-10-05T06:11:00,pkn,1.20
2023-10-05T06:12:00,pkn,1.20
2023-10-05T06:13:00,pkn,1.20
2023-10-05T06:15:00,pkn,1.20
2023-10-05T06:17:00,pkn,2.40
2023-10-05T06:18:00,pkn,1.20
2023-10-05T06:20:00,pkn,2.40
2023-10-05T06:22:00,pkn,1.20
2023-10-05T06:23:00,pkn,1.20
2023-10-05T06:25:00,pkn,1.20
2023-10-05T06:26:00,pkn,1.20
2023-10-05T06:28:00,pkn,1.20
2023-10-05T06:29:00,pkn,1.20
2023-10-05T06:31:00,pkn,2.40
2023-10-05T06:34:00,pkn,2.40
2023-10-05T06:35:00,pkn,1.20
2023-10-05T06:37:00,pkn,2.40
2023-10-05T06:40:00,pkn,2.40
2023-10-05T06:41:00,pkn,1.20
2023-10-05T06:43:00,pkn,2.40
2023-10-05T06:44:00,pkn,1.20
2023-10-05T06:46:00,pkn,2.40
2023-10-05T06:49:00,pkn,2.40
2023-10-05T06:51:00,pkn,2.40
2023-10-05T06:53:00,pkn,2.40
2023-10-05T06:55:00,pkn,1.20
2023-10-05T06:56:00,pkn,1.20
2023-10-05T06:58:00,pkn,2.40
2023-10-05T06:59:00,pkn,1.20
2023-10-05T07:00:00,pkn,1.20
2023-10-05T07:03:00,pkn,2.40
2023-10-05T07:04:00,pkn,1.20
2023-10-05T07:06:00,pkn,2.40
2023-10-05T07:08:00,pkn,1.20
2023-10-05T07:10:00,pkn,2.40
2023-10-05T07:11:00,pkn,1.20
2023-10-05T07:13:00,pkn,2.40
2023-10-05T07:14:00,pkn,1.20
2023-10-05T07:16:00,pkn,1.20
2023-10-05T07:18:00,pkn,2.40
2023-10-05T07:20:00,pkn,2.40
2023-10-05T07:21:00,pkn,1.20
2023-10-05T07:23:00,pkn,1.20
2023-10-05T07:25:00,pkn,2.40
2023-10-05T07:27:00,pkn,2.40
2023-10-05T07:29:00,pkn,2.40
2023-10-05T07:31:00,pkn,1.20
2023-10-05T07:32:00,pkn,1.20
2023-10-05T07:33:00,pkn,1.20
2023-10-05T07:35:00,pkn,6.00
2023-10-05T07:36:00,pkn,4.80
2023-10-05T07:38:00,pkn,9.60
2023-10-05T07:39:00,pkn,4.80
2023-10-05T07:40:00,pkn,4.80
2023-10-05T07:42:00,pkn,9.60
2023-10-05T07:44:00,pkn,7.20
2023-10-05T07:45:00,pkn,1.20
2023-10-05T07:46:00,pkn,1.20
2023-10-05T07:48:00,pkn,1.20
2023-10-05T07:49:00,pkn,1.20
2023-10-05T07:51:00,pkn,2.40
2023-10-05T07:53:00,pkn,1.20
2023-10-05T07:55:00,pkn,1.20
2023-10-05T07:56:00,pkn,1.20
2023-10-05T07:58:00,pkn,1.20
2023-10-05T08:00:00,pkn,2.40
2023-10-05T08:01:00,pkn,1.20
2023-10-05T08:03:00,pkn,2.40
2023-10-05T08:05:00,pkn,2.40
2023-10-05T08:07:00,pkn,1.20
2023-10-05T08:09:00,pkn,2.40
2023-10-05T08:11:00,pkn,1.20
2023-10-05T08:12:00,pkn,1.20
2023-10-05T08:13:00,pkn,1.20
2023-10-05T08:15:00,pkn,2.40
2023-10-05T08:18:00,pkn,2.40
2023-10-05T08:20:00,pkn,1.20
2023-10-05T08:21:00,pkn,3.60
2023-10-05T08:23:00,pkn,9.60
2023-10-05T08:25:00,pkn,9.60
2023-10-05T08:26:00,pkn,4.80
2023-10-05T08:28:00,pkn,10.80
2023-10-05T08:30:00,pkn,9.60
2023-10-05T08:32:00,pkn,10.80
2023-10-05T08:33:00,pkn,3.60
2023-10-05T08:35:00,pkn,10.80
2023-10-05T08:36:00,pkn,4.80
2023-10-05T08:38:00,pkn,10.80
2023-10-05T08:39:00,pkn,3.60
2023-10-05T08:41:00,pkn,10.80
2023-10-05T08:42:00,pkn,3.60
2023-10-05T08:44:00,pkn,2.40
2023-10-05T08:46:00,pkn,2.40
2023-10-05T08:48:00,pkn,2.40
2023-10-05T08:50:00,pkn,1.20
2023-10-05T08:51:00,pkn,1.20
2023-10-05T08:52:00,pkn,1.20
2023-10-05T08:54:00,pkn,2.40
2023-10-05T08:56:00,pkn,1.20
2023-10-05T08:58:00,pkn,8.40
2023-10-05T09:00:00,pkn,10.80
2023-10-05T09:02:00,pkn,9.60
2023-10-05T09:04:00,pkn,9.60
2023-10-05T09:06:00,pkn,9.60
2023-10-05T09:07:00,pkn,6.00
2023-10-05T09:08:00,pkn,3.60
2023-10-05T09:10:00,pkn,10.80
2023-10-05T09:11:00,pkn,4.80
2023-10-05T09:13:00,pkn,1.20
2023-10-05T09:15:00,pkn,2.40
2023-10-05T09:16:00,pkn,1.20
2023-10-05T09:18:00,pkn,1.20
2023-10-05T09:19:00,pkn,1.20
2023-10-05T09:21:00,pkn,2.40
2023-10-05T09:23:00,pkn,2.40
2023-10-05T09:24:00,pkn,1.20
2023-10-05T09:26:00,pkn,2.40
2023-10-05T09:28:00,pkn,2.40
2023-10-05T09:29:00,pkn,1.20
2023-10-05T09:31:00,pkn,2.40
2023-10-05T09:32:00,pkn,3.60
2023-10-05T09:34:00,pkn,10.80
2023-10-05T09:35:00,pkn,4.80
2023-10-05T09:37:00,pkn,10.80
2023-10-05T09:39:00,pkn,9.60
2023-10-05T09:40:00,pkn,4.80
2023-10-05T09:41:00,pkn,4.80
2023-10-05T09:43:00,pkn,9.60
2023-10-05T09:45:00,pkn,3.60
2023-10-05T09:46:00,pkn,1.20
2023-10-05T09:48:00,pkn,2.40
2023-10-05T09:50:00,pkn,2.40
2023-10-05T09:52:00,pkn,2.40
2023-10-05T09:54:00,pkn,1.20
2023-10-05T09:56:00,pkn,2.40
2023-10-05T09:57:00,pkn,1.20
2023-10-05T09:58:00,pkn,1.20
2023-10-05T09:59:00,pkn,1.20
2023-10-05T10:01:00,pkn,1.20
2023-10-05T10:03:00,pkn,2.40
2023-10-05T10:04:00,pkn,2.40
2023-10-05T10:06:00,pkn,2.40
2023-10-05T10:08:00,pkn,6.00
2023-10-05T10:09:00,pkn,4.80
2023-10-05T10:11:00,pkn,10.80
2023-10-05T10:13:00,pkn,10.80
2023-10-05T10:14:00,pkn,4.80
2023-10-05T10:16:00,pkn,10.80
2023-10-05T10:18:00,pkn,9.60
2023-10-05T10:20:00,pkn,2.40
2023-10-05T10:21:00,pkn,1.20
2023-10-05T10:22:00,pkn,1.20
2023-10-05T10:24:00,pkn,2.40
2023-10-05T10:26:00,pkn,2.40
2023-10-05T10:28:00,pkn,3.60
2023-10-05T10:30:00,pkn,8.40
2023-10-05T10:32:00,pkn,10.80
2023-10-05T10:34:00,pkn,10.80
2023-10-05T10:35:00,pkn,3.60
2023-10-05T10:37:00,pkn,10.80
2023-10-05T10:39:00,pkn,9.60
2023-10-05T10:40:00,pkn,4.80
2023-10-05T10:41:00,pkn,6.00
2023-10-05T10:43:00,pkn,4.80
2023-10-05T10:45:00,pkn,1.20
2023-10-05T10:46:00,pkn,1.20
2023-10-05T10:47:00,pkn,1.20
2023-10-05T10:49:00,pkn,1.20
2023-10-05T10:51:00,pkn,1.20
2023-10-05T10:52:00,pkn,1.20
2023-10-05T10:55:00,pkn,2.40
2023-10-05T10:57:00,pkn,1.20
2023-10-05T10:59:00,pkn,1.20
2023-10-05T11:00:00,pkn,1.20
2023-10-05T11:01:00,pkn,1.20
2023-10-05T11:02:00,pkn,1.20
2023-10-05T11:03:00,pkn,4.80
2023-10-05T11:05:00,pkn,9.60
2023-10-05T11:07:00,pkn,8.40
2023-10-05T11:08:00,pkn,1.20
2023-10-05T11:09:00,pkn,7.20
2023-10-05T11:10:00,pkn,7.20
2023-10-05T11:11:00,pkn,3.60
2023-10-05T11:12:00,pkn,1.20
2023-10-05T11:15:00,pkn,2.40
2023-10-05T11:18:00,pkn,2.40
2023-10-05T11:21:00,pkn,2.40
2023-10-05T11:23:00,pkn,1.20
2023-10-05T11:25:00,pkn,2.40
2023-10-05T11:27:00,pkn,2.40
2023-10-05T11:30:00,pkn,2.40
2023-10-05T11:32:00,pkn,1.20
2023-10-05T11:33:00,pkn,1.20
2023-10-05T11:35:00,pkn,2.40
2023-10-05T11:37:00,pkn,1.20
2023-10-05T11:39:00,pkn,1.20
2023-10-05T11:40:00,pkn,1.20
2023-10-05T11:42:00,pkn,4.80
2023-10-05T11:43:00,pkn,4.80
2023-10-05T11:45:00,pkn,9.60
2023-10-05T11:46:00,pkn,4.80
2023-10-05T11:48:00,pkn,9.60
2023-10-05T11:50:00,pkn,7.20
2023-10-05T11:52:00,pkn,1.20
2023-10-05T11:54:00,pkn,1.20
2023-10-05T11:56:00,pkn,2.40
2023-10-05T11:58:00,pkn,1.20
2023-10-05T11:59:00,pkn,1.20
2023-10-05T12:02:00,pkn,2.40
2023-10-05T12:05:00,pkn,2.40
2023-10-05T12:07:00,pkn,1.20
2023-10-05T12:09:00,pkn,1.20
2023-10-05T12:11:00,pkn,2.40
2023-10-05T12:14:00,pkn,1.20
2023-10-05T12:16:00,pkn,2.40
2023-10-05T12:18:00,pkn,1.20
2023-10-05T12:20:00,pkn,1.20
2023-10-05T12:21:00,pkn,1.20
2023-10-05T12:23:00,pkn,1.20
2023-10-05T12:25:00,pkn,1.20
2023-10-05T12:27:00,pkn,1.20
2023-10-05T12:29:00,pkn,1.20
2023-10-05T12:30:00,pkn,1.20
2023-10-05T12:31:00,pkn,1.20
2023-10-05T12:33:00,pkn,9.60
2023-10-05T12:35:00,pkn,8.40
2023-10-05T12:37:00,pkn,10.80
2023-10-05T12:38:00,pkn,3.60
2023-10-05T12:40:00,pkn,4.80
2023-10-05T12:42:00,pkn,1.20
2023-10-05T12:44:00,pkn,1.20
2023-10-05T12:46:00,pkn,1.20
2023-10-05T12:47:00,pkn,1.20
2023-10-05T12:49:00,pkn,1.20
2023-10-05T12:50:00,pkn,1.20
2023-10-05T12:52:00,pkn,2.40
2023-10-05T12:55:00,pkn,2.40
2023-10-05T12:56:00,pkn,1.20
2023-10-05T12:58:00,pkn,1.20
2023-10-05T12:59:00,pkn,1.20
2023-10-05T13:01:00,pkn,1.20
2023-10-05T13:02:00,pkn,1.20
2023-10-05T13:04:00,pkn,1.20
2023-10-05T13:06:00,pkn,2.40
2023-10-05T13:09:00,pkn,2.40
2023-10-05T13:11:00,pkn,1.20
2023-10-05T13:13:00,pkn,1.20
2023-10-05T13:14:00,pkn,1.20
2023-10-05T13:16:00,pkn,1.20
2023-10-05T13:18:00,pkn,2.40
2023-10-05T13:20:00,pkn,1.20
2023-10-05T13:22:00,pkn,1.20
2023-10-05T13:24:00,pkn,1.20
2023-10-05T13:26:00,pkn,2.40
2023-10-05T13:28:00,pkn,1.20
2023-10-05T13:30:00,pkn,1.20
2023-10-05T13:32:00,pkn,2.40
2023-10-05T13:34:00,pkn,1.20
2023-10-05T13:37:00,pkn,2.40
2023-10-05T13:39:00,pkn,1.20
2023-10-05T13:41:00,pkn,8.40
2023-10-05T13:43:00,pkn,9.60
2023-10-05T13:45:00,pkn,9.60
2023-10-05T13:47:00,pkn,8.40
2023-10-05T13:48:00,pkn,1.20
2023-10-05T13:50:00,pkn,1.20
2023-10-05T13:52:00,pkn,2.40
2023-10-05T13:53:00,pkn,1.20
2023-10-05T13:55:00,pkn,2.40
2023-10-05T13:57:00,pkn,1.20
2023-10-05T13:58:00,pkn,1.20
2023-10-05T13:59:00,pkn,1.20
2023-10-05T14:01:00,pkn,1.20
2023-10-05T14:02:00,pkn,1.20
2023-10-05T14:04:00,pkn,1.20
2023-10-05T14:06:00,pkn,1.20
2023-10-05T14:08:00,pkn,2.40
2023-10-05T14:10:00,pkn,1.20
2023-10-05T14:12:00,pkn,2.40
2023-10-05T14:14:00,pkn,1.20
2023-10-05T14:16:00,pkn,1.20
2023-10-05T14:17:00,pkn,1.20
2023-10-05T14:19:00,pkn,2.40
2023-10-05T14:21:00,pkn,1.20
2023-10-05T14:23:00,pkn,2.40
2023-10-05T14:25:00,pkn,1.20
2023-10-05T14:27:00,pkn,2.40
2023-10-05T14:30:00,pkn,2.40
2023-10-05T14:32:00,pkn,1.20
2023-10-05T14:34:00,pkn,1.20
2023-10-05T14:36:00,pkn,2.40
2023-10-05T14:38:00,pkn,1.20
2023-10-05T14:39:00,pkn,1.20
2023-10-05T14:42:00,pkn,1.20
2023-10-05T14:43:00,pkn,1.20
2023-10-05T14:44:00,pkn,1.20
2023-10-05T14:46:00,pkn,1.20
2023-10-05T14:49:00,pkn,1.20
2023-10-05T14:51:00,pkn,2.40
2023-10-05T14:54:00,pkn,2.40
2023-10-05T14:55:00,pkn,1.20
2023-10-05T14:57:00,pkn,1.20
2023-10-05T14:58:00,pkn,1.20
2023-10-05T15:00:00,pkn,1.20
2023-10-05T15:01:00,pkn,1.20
2023-10-05T15:03:00,pkn,1.20
2023-10-05T15:05:00,pkn,1.20
2023-10-05T15:07:00,pkn,2.40
2023-10-05T15:10:00,pkn,1.20
2023-10-05T15:11:00,pkn,1.20
2023-10-05T15:13:00,pkn,1.20
2023-10-05T15:14:00,pkn,2.40
2023-10-05T15:16:00,pkn,9.60
2023-10-05T15:18:00,pkn,9.60
2023-10-05T15:19:00,pkn,4.80
2023-10-05T15:21:00,pkn,9.60
2023-10-05T15:23:00,pkn,1.20
2023-10-05T15:25:00,pkn,2.40
2023-10-05T15:27:00,pkn,1.20
2023-10-05T15:30:00,pkn,2.40
2023-10-05T15:32:00,pkn,2.40
2023-10-05T15:35:00,pkn,2.40
2023-10-05T15:37:00,pkn,1.20
2023-10-05T15:38:00,pkn,1.20
2023-10-05T15:40:00,pkn,1.20
2023-10-05T15:42:00,pkn,2.40
2023-10-05T15:44:00,pkn,2.40
2023-10-05T15:47:00,pkn,2.40
2023-10-05T15:50:00,pkn,2.40
2023-10-05T15:52:00,pkn,1.20
2023-10-05T15:54:00,pkn,1.20
2023-10-05T15:55:00,pkn,1.20
2023-10-05T15:56:00,pkn,1.20
2023-10-05T15:58:00,pkn,1.20
2023-10-05T15:59:00,pkn,1.20
2023-10-05T16:01:00,pkn,1.20
2023-10-05T16:03:00,pkn,2.40
2023-10-05T16:05:00,pkn,2.40
2023-10-05T16:07:00,pkn,1.20
2023-10-05T16:09:00,pkn,2.40
2023-10-05T16:11:00,pkn,1.20
2023-10-05T16:12:00,pkn,1.20
2023-10-05T16:14:00,pkn,1.20
2023-10-05T16:16:00,pkn,2.40
2023-10-05T16:19:00,pkn,2.40
2023-10-05T16:20:00,pkn,1.20
2023-10-05T16:23:00,pkn,1.20
2023-10-05T16:25:00,pkn,2.40
2023-10-05T16:28:00,pkn,2.40
2023-10-05T16:30:00,pkn,1.20
2023-10-05T16:33:00,pkn,2.40
2023-10-05T16:34:00,pkn,1.20
2023-10-05T16:36:00,pkn,3.60
2023-10-05T16:38:00,pkn,3.60
2023-10-05T16:39:00,pkn,1.20
2023-10-05T16:41:00,pkn,3.60
2023-10-05T16:43:00,pkn,3.60
2023-10-05T16:44:00,pkn,1.20
2023-10-05T16:45:00,pkn,1.20
2023-10-05T16:47:00,pkn,2.40
2023-10-05T16:49:00,pkn,1.20
2023-10-05T16:51:00,pkn,4.80
2023-10-05T16:52:00,pkn,3.60
2023-10-05T16:54:00,pkn,10.80
2023-10-05T16:56:00,pkn,9.60
2023-10-05T16:58:00,pkn,10.80
2023-10-05T16:59:00,pkn,3.60
2023-10-05T17:01:00,pkn,2.40
2023-10-05T17:02:00,pkn,1.20
2023-10-05T17:04:00,pkn,2.40
2023-10-05T17:06:00,pkn,1.20
2023-10-05T17:08:00,pkn,2.40
2023-10-05T17:09:00,pkn,1.20
2023-10-05T17:11:00,pkn,1.20
2023-10-05T17:12:00,pkn,1.20
2023-10-05T17:13:00,pkn,1.20
2023-10-05T17:15:00,pkn,1.20
2023-10-05T17:17:00,pkn,2.40
2023-10-05T17:19:00,pkn,1.20
2023-10-05T17:22:00,pkn,2.40
2023-10-05T17:24:00,pkn,1.20
2023-10-05T17:26:00,pkn,2.40
2023-10-05T17:28:00,pkn,1.20
2023-10-05T17:30:00,pkn,1.20
2023-10-05T17:31:00,pkn,1.20
2023-10-05T17:34:00,pkn,2.40
2023-10-05T17:37:00,pkn,1.20
2023-10-05T17:39:00,pkn,2.40
2023-10-05T17:41:00,pkn,1.20
2023-10-05T17:42:00,pkn,1.20
2023-10-05T17:44:00,pkn,1.20
2023-10-05T17:45:00,pkn,1.20
2023-10-05T17:46:00,pkn,1.20
2023-10-05T17:48:00,pkn,1.20
2023-10-05T17:49:00,pkn,1.20
2023-10-05T17:51:00,pkn,1.20
2023-10-05T17:52:00,pkn,1.20
2023-10-05T17:54:00,pkn,1.20
2023-10-05T17:56:00,pkn,2.40
2023-10-05T17:59:00,pkn,2.40
2023-10-05T18:02:00,pkn,1.20
2023-10-05T18:04:00,pkn,2.40
2023-10-05T18:06:00,pkn,1.20
2023-10-05T18:09:00,pkn,2.40
2023-10-05T18:12:00,pkn,2.40
2023-10-05T18:14:00,pkn,1.20
2023-10-05T18:16:00,pkn,1.20
2023-10-05T18:17:00,pkn,1.20
2023-10-05T18:19:00,pkn,2.40
2023-10-05T18:22:00,pkn,2.40
2023-10-05T18:24:00,pkn,1.20
2023-10-05T18:26:00,pkn,2.40
2023-10-05T18:29:00,pkn,2.40
2023-10-05T18:31:00,pkn,3.60
2023-10-05T18:33:00,pkn,3.60
2023-10-05T18:34:00,pkn,1.20
2023-10-05T18:36:00,pkn,3.60
2023-10-05T18:38:00,pkn,3.60
2023-10-05T18:39:00,pkn,1.20
2023-10-05T18:41:00,pkn,2.40
2023-10-05T18:43:00,pkn,2.40
2023-10-05T18:45:00,pkn,1.20
2023-10-05T18:46:00,pkn,1.20
2023-10-05T18:47:00,pkn,6.00
2023-10-05T18:49:00,pkn,9.60
2023-10-05T18:51:00,pkn,9.60
2023-10-05T18:53:00,pkn,9.60
2023-10-05T18:54:00,pkn,1.20
2023-10-05T18:55:00,pkn,2.40
2023-10-05T18:56:00,pkn,1.20
2023-10-05T18:58:00,pkn,2.40
2023-10-05T19:00:00,pkn,1.20
2023-10-05T19:01:00,pkn,1.20
2023-10-05T19:03:00,pkn,2.40
2023-10-05T19:06:00,pkn,2.40
2023-10-05T19:07:00,pkn,1.20
2023-10-05T19:08:00,pkn,1.20
2023-10-05T19:10:00,pkn,1.20
2023-10-05T19:11:00,pkn,1.20
2023-10-05T19:13:00,pkn,1.20
2023-10-05T19:14:00,pkn,1.20
2023-10-05T19:16:00,pkn,1.20
2023-10-05T19:17:00,pkn,1.20
2023-10-05T19:18:00,pkn,1.20
2023-10-05T19:20:00,pkn,1.20
2023-10-05T19:21:00,pkn,1.20
2023-10-05T19:23:00,pkn,2.40
2023-10-05T19:25:00,pkn,1.20
2023-10-05T19:26:00,pkn,1.20
2023-10-05T19:28:00,pkn,2.40
2023-10-05T19:31:00,pkn,2.40
2023-10-05T19:32:00,pkn,1.20
2023-10-05T19:34:00,pkn,1.20
2023-10-05T19:35:00,pkn,1.20
2023-10-05T19:36:00,pkn,1.20
2023-10-05T19:38:00,pkn,1.20
2023-10-05T19:40:00,pkn,2.40
2023-10-05T19:42:00,pkn,1.20
2023-10-05T19:44:00,pkn,2.40
2023-10-05T19:45:00,pkn,1.20
2023-10-05T19:47:00,pkn,1.20
2023-10-05T19:49:00,pkn,2.40
2023-10-05T19:51:00,pkn,1.20
2023-10-05T19:53:00,pkn,2.40
2023-10-05T19:55:00,pkn,2.40
2023-10-05T19:56:00,pkn,1.20
2023-10-05T19:58:00,pkn,1.20
2023-10-05T20:00:00,pkn,2.40
2023-10-05T20:01:00,pkn,1.20
2023-10-05T20:03:00,pkn,2.40
2023-10-05T20:05:00,pkn,1.20
2023-10-05T20:07:00,pkn,2.40
2023-10-05T20:09:00,pkn,2.40
2023-10-05T20:10:00,pkn,1.20
2023-10-05T20:12:00,pkn,1.20
2023-10-05T20:14:00,pkn,2.40
2023-10-05T20:17:00,pkn,2.40
2023-10-05T20:18:00,pkn,1.20
2023-10-05T20:20:00,pkn,2.40
2023-10-05T20:22:00,pkn,1.20
2023-10-05T20:24:00,pkn,2.40
2023-10-05T20:25:00,pkn,1.20
2023-10-05T20:27:00,pkn,2.40
2023-10-05T20:28:00,pkn,1.20
2023-10-05T20:30:00,pkn,2.40
2023-10-05T20:31:00,pkn,1.20
2023-10-05T20:33:00,pkn,2.40
2023-10-05T20:34:00,pkn,1.20
2023-10-05T20:36:00,pkn,2.40
2023-10-05T20:38:00,pkn,1.20
2023-10-05T20:40:00,pkn,2.40
2023-10-05T20:42:00,pkn,2.40
2023-10-05T20:44:00,pkn,1.20
2023-10-05T20:45:00,pkn,1.20
2023-10-05T20:47:00,pkn,2.40
2023-10-05T20:48:00,pkn,1.20
2023-10-05T20:50:00,pkn,2.40
2023-10-05T20:52:00,pkn,1.20
2023-10-05T20:54:00,pkn,2.40
2023-10-05T20:56:00,pkn,2.40
2023-10-05T20:58:00,pkn,2.40
2023-10-05T20:59:00,pkn,2.40
2023-10-05T21:00:00,pkn,4.80
2023-10-05T21:02:00,pkn,10.80
2023-10-05T21:04:00,pkn,10.80
2023-10-05T21:05:00,pkn,4.80
2023-10-05T21:06:00,pkn,6.00
2023-10-05T21:08:00,pkn,4.80
2023-10-05T21:10:00,pkn,2.40
2023-10-05T21:11:00,pkn,1.20
2023-10-05T21:13:00,pkn,2.40
2023-10-05T21:15:00,pkn,2.40
2023-10-05T21:16:00,pkn,1.20
2023-10-05T21:18:00,pkn,2.40
2023-10-05T21:20:00,pkn,2.40
2023-10-05T21:22:00,pkn,2.40
2023-10-05T21:23:00,pkn,1.20
2023-10-05T21:24:00,pkn,1.20
2023-10-05T21:26:00,pkn,1.20
2023-10-05T21:27:00,pkn,1.20
2023-10-05T21:29:00,pkn,2.40
2023-10-05T21:31:00,pkn,1.20
2023-10-05T21:33:00,pkn,2.40
2023-10-05T21:34:00,pkn,1.20
2023-10-05T21:36:00,pkn,2.40
2023-10-05T21:38:00,pkn,1.20
2023-10-05T21:39:00,pkn,1.20
2023-10-05T21:41:00,pkn,2.40
2023-10-05T21:42:00,pkn,1.20
2023-10-05T21:44:00,pkn,2.40
2023-10-05T21:45:00,pkn,1.20
2023-10-05T21:47:00,pkn,2.40
2023-10-05T21:48:00,pkn,1.20
2023-10-05T21:49:00,pkn,1.20
2023-10-05T21:51:00,pkn,2.40
2023-10-05T21:53:00,pkn,3.60
2023-10-05T21:55:00,pkn,3.60
2023-10-05T21:57:00,pkn,3.60
2023-10-05T21:58:00,pkn,1.20
2023-10-05T22:00:00,pkn,3.60
2023-10-05T22:01:00,pkn,1.20
2023-10-05T22:02:00,pkn,2.40
2023-10-05T22:04:00,pkn,7.20
2023-10-05T22:05:00,pkn,3.60
2023-10-05T22:06:00,pkn,3.60
2023-10-05T22:07:00,pkn,8.40
2023-10-05T22:08:00,pkn,7.20
2023-10-05T22:09:00,pkn,7.20
2023-10-05T22:11:00,pkn,8.40
2023-10-05T22:12:00,pkn,1.20
2023-10-05T22:14:00,pkn,2.40
2023-10-05T22:16:00,pkn,2.40
2023-10-05T22:18:00,pkn,2.40
2023-10-05T22:20:00,pkn,2.40
2023-10-05T22:21:00,pkn,1.20
2023-10-05T22:22:00,pkn,1.20
2023-10-05T22:24:00,pkn,2.40
2023-10-05T22:26:00,pkn,2.40
2023-10-05T22:28:00,pkn,2.40
2023-10-05T22:30:00,pkn,2.40
2023-10-05T22:32:00,pkn,1.20
2023-10-05T22:34:00,pkn,2.40
2023-10-05T22:36:00,pkn,2.40
2023-10-05T22:38:00,pkn,2.40
2023-10-05T22:40:00,pkn,2.40
2023-10-05T22:41:00,pkn,1.20
2023-10-05T22:43:00,pkn,1.20
2023-10-05T22:45:00,pkn,2.40
2023-10-05T22:46:00,pkn,1.20
2023-10-05T22:48:00,pkn,2.40
2023-10-05T22:49:00,pkn,1.20
2023-10-05T22:51:00,pkn,2.40
2023-10-05T22:54:00,pkn,2.40
2023-10-05T22:55:00,pkn,4.80
2023-10-05T22:57:00,pkn,10.80
2023-10-05T22:58:00,pkn,4.80
2023-10-05T23:00:00,pkn,10.80
2023-10-05T23:02:00,pkn,10.80
2023-10-05T23:04:00,pkn,10.80
2023-10-05T23:05:00,pkn,3.60
2023-10-05T23:06:00,pkn,1.20
2023-10-05T23:07:00,pkn,8.40
2023-10-05T23:08:00,pkn,7.20
2023-10-05T23:10:00,pkn,6.00
2023-10-05T23:12:00,pkn,1.20
2023-10-05T23:14:00,pkn,2.40
2023-10-05T23:15:00,pkn,1.20
2023-10-05T23:17:00,pkn,1.20
2023-10-05T23:18:00,pkn,1.20
2023-10-05T23:20:00,pkn,2.40
2023-10-05T23:22:00,pkn,2.40
2023-10-05T23:24:00,pkn,2.40
2023-10-05T23:26:00,pkn,2.40
2023-10-05T23:28:00,pkn,1.20
2023-10-05T23:29:00,pkn,1.20
2023-10-05T23:31:00,pkn,2.40
2023-10-05T23:33:00,pkn,1.20
2023-10-05T23:34:00,pkn,1.20
2023-10-05T23:36:00,pkn,2.40
2023-10-05T23:39:00,pkn,2.40
2023-10-05T23:40:00,pkn,1.20
2023-10-05T23:42:00,pkn,10.80